map of YWH home
YWH - Seaplane Base
Location
City:  Victoria, British Columbia, Canada
Name:Victoria Inner Harbour Airport
Old (Alt.):Victoria Harbour Water Airport
ICAO:CYWH
IATA:YWH

Details
Type:Seaplane Base
Use:Private
Latitude:4825'22"N (48.422778)
Longitude:12323'15"W (-123.387499)
Elevation:0 ft (0 m)
Variation:16.05E (WMM2015v2 magnetic declination)
-0.11 annual change

Time
Time Zone:UTC-8 (DST-7)
Local Time:

Weather
METAR:CYWH 041400Z 07008KT 360V100 7SM -SN FEW007 OVC018 M05/M08 A2966 RMK SF2SC6 PRESRR SLP045
TAF:CYWH 032339Z 0400/0405 26015KT P6SM SCT030 BKN050
BECMG 0401/0403 04010KT
RMK NXT FCST WILL BE ISSUED AT 041515Z

Related Locations
Nearby:
Farthest:FTU: 10735 mi / 17276 km
Tolagnaro [Maurillac Airport (Fort Dauphin Airport)], MG

Find:

   beyond  
but within

Other Information
Maps:
NOTAMs:
Links:
Sources:

  
  • flag of Canada
  • flag of British Columbia
  

Sectional Chart

Flight Planning
at skyvector.com

Satellite Image

Google Maps Satellite view

 

Copyright © 2004-2019 Karl L. Swartz. All rights reserved.
The Great Circle Mapper name and logo are trademarks of the Great Circle Mapper.
All other trademarks mentioned herein belong to their respective owners.
Please see credits for attibutions and further copyright information.

  Follow gcmap on Facebook Follow gcmap on Twitter GCmap on LinkedIn

hCard Microformat

Geo Microformat